Volver al catálogo

USA 115

ActivoMilitarGEO
NORAD 23712·PAYLOAD·🇺🇸 United States

Lanzado Nov 6, 1995 desde Cape Canaveral Space Force Station

Loading…

TLE

ActualizadoSource: Space-Track

Época: Sep 14, 2026, 06:31 UTC

1 23712U 95060A   26257.27221762 -.00000209  00000-0  00000-0 0  9998
2 23712  14.1048   3.0728 0006011 153.8883 204.3007  1.00271388 33775

Sigue USA 115 en tiempo real con AllMySat

Download on the App Store